Theta_e
318 318 318 318 318 318 317 316 316 316 316 314 313 309 308 311 313 326 330 326 324 320 336 337 349 352 352 354 355 357 366 362 352 342 340 340 341 339 343 347 350 348 344 345 350
318 317 317 316 317 317 317 316 316 316 315 311 313 312 309 311 319 325 325 324 318 321 341 347 352 349 352 352 352 355 355 353 348 344 344 342 340 338 338 344 353 352 349 345 350
318 317 317 316 316 316 316 316 316 316 311 309 311 312 310 312 327 330 323 324 318 321 337 343 342 346 348 348 348 350 351 346 346 346 345 344 340 338 338 340 345 353 353 349 350
318 318 317 317 316 316 316 316 316 315 310 309 310 312 312 321 327 336 319 319 318 334 339 340 338 342 345 341 341 344 344 345 342 343 344 344 342 338 338 338 341 348 353 351 352
316 317 318 317 315 315 315 316 316 310 309 309 311 315 315 326 325 332 317 319 327 342 338 338 336 339 341 336 334 335 335 336 337 339 340 341 341 338 338 338 339 345 351 353 353
317 316 317 317 315 315 316 316 311 309 311 311 314 315 320 323 322 333 335 334 334 340 335 335 335 336 337 335 333 332 331 331 331 332 337 340 340 338 337 338 339 346 350 353 353
315 315 317 315 314 316 316 313 309 311 312 314 314 316 323 322 325 331 332 335 334 333 334 332 333 335 334 334 332 333 332 332 332 330 330 333 338 339 338 338 339 345 349 353 353
313 314 316 314 316 316 314 310 310 313 314 315 315 322 324 320 319 323 328 332 333 332 332 332 332 333 332 331 332 332 332 330 331 333 330 331 336 337 337 338 339 340 342 346 350
313 315 314 316 316 316 312 310 313 316 315 315 325 328 324 318 320 321 321 322 323 324 322 324 326 327 326 326 328 329 331 330 330 331 331 331 333 335 337 337 336 336 336 334 340
314 314 316 316 316 314 310 311 312 315 322 322 323 325 324 323 321 321 322 321 322 323 324 325 325 327 327 327 328 329 330 330 330 331 330 331 332 332 334 335 334 334 335 335 334
314 315 316 316 315 311 313 319 322 325 321 322 323 323 323 321 321 321 321 322 323 323 326 328 329 326 326 328 328 329 328 328 328 330 331 331 332 332 332 331 332 333 335 335 336
315 315 315 315 315 314 315 317 315 315 322 322 321 322 321 320 323 323 322 323 324 324 325 326 326 328 328 327 326 327 328 328 329 329 329 329 331 332 332 332 331 330 331 333 335
315 315 314 315 316 317 315 313 312 315 322 323 322 323 323 322 324 324 323 325 325 325 326 326 325 325 325 325 325 326 326 327 327 328 328 329 330 332 332 331 331 331 331 331 334
315 315 314 315 318 317 316 312 314 315 325 324 322 323 323 324 324 323 323 324 325 325 325 326 326 325 324 325 325 328 327 327 327 327 328 329 331 332 332 332 332 331 331 331 332
315 314 314 312 316 319 315 313 315 317 332 323 324 322 323 324 324 324 323 324 324 325 325 325 324 324 324 325 325 325 325 325 326 328 328 329 330 331 332 334 332 330 331 331 333
315 314 314 316 318 316 313 314 317 325 329 324 323 323 324 324 324 324 325 324 325 324 325 325 326 325 324 324 326 326 326 327 328 328 332 333 334 336 333 332 332 331 331 331 333
315 314 312 313 319 315 315 319 326 328 323 324 323 323 323 323 323 323 325 326 327 327 327 327 327 325 324 323 324 324 325 327 329 329 330 329 332 336 334 333 331 331 331 332 333
315 315 316 314 316 316 317 323 329 326 323 323 323 323 322 322 323 323 324 327 328 328 328 330 329 325 325 324 325 326 327 328 329 328 331 331 333 333 332 332 331 330 331 332 333
315 319 317 318 316 317 321 325 328 326 324 323 323 323 324 322 321 322 324 325 327 327 329 329 330 328 328 324 325 327 328 328 327 329 328 331 333 331 330 332 330 333 335 343 351
314 319 320 317 317 320 322 323 323 324 323 323 325 324 324 324 323 324 324 325 324 326 326 327 330 329 329 326 326 325 326 327 328 335 336 331 330 333 336 335 334 333 340 351 354
315 324 319 316 317 322 325 326 324 324 324 325 325 325 325 323 323 323 324 324 325 325 325 326 329 330 329 330 331 328 328 329 328 328 330 332 330 333 332 335 335 338 350 358 361
320 327 318 316 322 325 325 325 316 323 325 324 324 325 325 325 324 325 324 324 325 325 325 327 329 330 327 327 330 329 331 332 330 334 331 335 332 330 330 331 339 347 353 363 363
323 325 319 317 324 327 326 323 322 323 324 327 327 325 326 327 327 326 325 324 325 325 326 327 328 329 329 329 332 333 332 337 332 334 337 338 340 334 330 348 354 357 358 364 363
321 327 323 320 322 323 325 325 324 322 323 324 326 327 328 328 329 329 328 326 325 324 327 325 327 329 330 331 330 334 331 331 333 336 335 335 338 339 341 338 350 357 360 362 363
321 325 322 326 324 322 322 324 323 324 324 325 326 326 327 328 328 328 327 327 326 326 327 327 331 330 329 327 327 328 328 328 329 330 332 333 333 340 349 352 356 359 360 358 361
323 324 322 322 322 321 318 322 321 321 323 325 326 325 326 326 327 327 328 328 327 327 327 327 330 330 330 328 327 327 327 326 328 328 329 332 335 347 349 351 353 353 355 356 355
320 318 319 321 322 322 322 322 321 321 321 322 323 326 325 325 326 325 322 323 326 327 327 327 328 330 331 327 326 328 328 329 331 333 334 338 343 347 351 350 349 349 349 348 350
Wind_Speed
25 26 25 25 26 26 26 26 25 25 25 23 20 19 19 20 22 8 11 4 8 11 15 18 18 15 15 15 15 15 14 6 20 1 5 9 9 6 7 5 3 5 6 15 23
24 25 26 27 27 27 28 28 26 27 27 22 20 18 17 18 17 22 15 12 9 18 20 20 17 15 13 13 12 12 15 6 10 10 8 9 9 9 6 7 10 8 11 20 26
25 25 27 28 28 28 28 29 28 29 24 22 20 17 14 14 13 1 3 9 10 21 19 17 14 13 16 17 14 14 16 20 19 12 12 14 12 11 8 8 9 15 15 21 24
24 26 28 28 29 29 31 29 30 26 22 23 20 14 10 6 6 7 4 2 10 20 16 17 12 16 18 17 17 18 18 20 19 17 14 15 12 15 10 10 7 13 19 22 23
26 26 28 29 30 30 31 32 28 24 24 20 15 9 4 9 11 4 1 4 17 17 17 16 15 15 18 17 16 16 18 20 22 21 18 16 15 15 16 10 2 5 19 20 20
28 26 28 30 32 32 32 32 27 26 19 13 10 5 8 14 2 1 4 12 14 17 17 17 14 14 17 18 17 18 19 21 20 22 20 20 19 18 16 6 3 5 14 16 19
28 25 27 31 30 30 34 26 27 21 9 6 7 8 11 12 1 2 7 13 16 16 16 19 18 12 12 16 19 16 20 21 22 20 23 22 23 21 18 11 5 10 9 15 17
28 26 28 30 29 35 27 27 17 7 4 5 0 7 6 3 4 9 10 10 14 13 14 11 12 14 17 17 21 22 22 21 21 20 21 22 22 18 22 9 10 10 11 14 16
28 27 29 31 31 33 27 19 7 4 3 3 4 9 5 2 8 6 13 15 17 18 17 15 12 17 18 19 18 19 22 26 23 21 15 13 18 19 21 11 9 12 12 12 15
28 28 30 32 37 24 23 9 6 4 4 7 9 7 6 1 4 5 6 9 9 12 14 13 14 17 18 16 19 20 21 22 21 16 19 18 21 21 19 21 15 19 16 15 13
28 29 30 32 33 19 24 6 4 6 13 9 4 5 5 7 2 7 8 11 10 9 14 19 14 19 23 23 24 20 24 27 27 25 23 16 21 16 19 18 19 19 20 19 19
29 29 31 32 19 15 12 6 7 6 7 4 4 6 3 3 6 7 5 8 9 14 15 14 18 17 18 19 24 24 27 26 25 26 24 24 24 24 20 22 16 20 23 23 21
28 29 31 32 9 8 8 8 8 8 7 9 4 5 0 6 3 3 6 5 11 12 14 16 18 12 10 14 18 20 22 24 26 25 27 25 26 25 25 21 25 23 24 21 23
27 29 32 32 5 12 2 8 10 4 5 12 10 5 8 4 6 1 3 8 7 9 10 11 11 9 14 20 14 18 17 19 21 21 18 23 20 25 23 21 12 16 21 20 22
26 28 30 12 12 5 8 10 9 5 5 4 7 4 4 7 4 8 2 9 12 11 7 14 10 13 14 14 13 18 16 18 21 20 23 25 18 21 16 18 15 15 19 20 22
26 28 26 2 5 8 10 11 7 7 2 6 2 4 9 9 6 4 7 7 12 12 14 15 13 12 10 11 10 11 13 15 16 19 13 18 14 20 21 15 18 15 17 21 19
26 26 13 6 7 11 10 7 7 7 3 4 0 4 6 7 6 2 5 4 7 8 10 10 13 4 5 12 11 13 15 12 12 11 11 13 9 13 19 23 13 11 12 10 15
28 16 8 8 8 10 10 9 7 6 2 2 7 9 11 4 10 4 9 9 8 9 12 8 6 5 3 9 12 13 12 10 16 14 7 7 16 10 12 26 22 5 9 10 8
26 9 6 3 5 6 7 8 6 4 4 6 11 9 6 5 5 5 9 7 4 7 8 11 13 14 13 11 12 15 8 10 11 19 14 9 13 14 17 22 12 5 3 7 12
18 13 9 3 5 9 7 12 5 3 7 7 10 0 6 2 7 3 4 6 4 5 9 14 14 15 15 9 13 16 11 10 7 2 16 12 11 15 6 17 29 10 6 8 9
9 5 7 3 6 7 10 9 1 3 6 6 4 7 7 6 6 9 5 5 5 10 13 15 12 15 16 11 9 5 13 17 14 11 6 6 8 14 15 10 20 16 7 12 12
9 6 6 3 7 7 9 3 3 9 7 9 6 8 7 6 9 8 6 3 10 9 14 13 9 14 18 21 10 13 18 18 9 17 11 12 17 9 11 12 4 9 12 15 13
4 9 6 8 7 8 9 8 7 9 10 5 6 5 2 9 5 8 6 6 6 9 10 10 11 14 14 16 13 6 12 13 10 15 17 8 15 12 18 13 15 13 14 10 8
5 5 6 7 11 10 13 7 10 8 11 8 10 7 10 11 11 8 11 11 10 11 5 7 14 16 15 22 5 8 13 16 20 11 14 13 15 16 24 8 13 12 8 11 7
5 2 5 5 2 6 9 10 9 11 10 5 10 12 14 10 13 14 14 12 10 6 11 10 14 13 18 22 25 22 18 19 17 17 16 19 19 12 9 5 6 10 10 9 7
5 5 2 9 8 11 8 11 14 14 6 12 11 16 3 11 12 14 13 12 14 15 14 13 14 16 19 21 21 22 23 25 16 22 18 18 16 17 9 11 12 14 14 12 11
3 10 6 7 9 9 11 11 12 10 9 11 14 8 11 8 12 12 15 17 17 17 16 15 13 14 18 20 20 18 20 12 14 10 11 11 19 16 10 7 7 10 11 9 10
Wind_Direction
1 357 353 350 349 347 344 340 337 335 332 327 324 323 321 319 315 295 264 257 204 206 169 169 197 207 220 237 239 271 273 321 331 87 67 51 351 27 106 146 174 159 102 127 146
354 352 350 348 345 343 340 337 333 330 327 323 315 320 319 316 299 267 264 252 244 183 182 181 191 206 222 241 242 239 280 283 298 13 325 335 343 328 306 153 158 155 118 141 155
349 347 345 345 341 338 334 332 329 328 326 320 314 317 312 313 277 26 119 234 217 185 201 201 212 219 237 250 243 251 258 289 322 339 332 311 303 336 324 272 197 171 162 158 164
343 342 343 341 339 336 332 328 325 324 319 314 313 312 297 284 282 92 87 122 188 183 213 214 234 223 244 249 248 258 267 280 279 287 296 284 314 290 309 319 327 167 166 170 176
342 339 338 338 337 334 331 326 324 321 316 309 308 306 259 227 261 125 279 178 162 191 217 218 229 230 246 264 268 262 271 273 278 286 280 287 276 281 294 288 217 228 163 179 182
337 337 336 336 335 332 330 326 324 319 313 302 304 272 232 254 24 162 158 169 186 208 219 221 237 250 264 281 281 289 294 290 293 287 281 275 277 275 268 290 257 186 172 186 191
337 336 335 334 334 331 328 327 321 316 310 311 302 203 251 247 18 223 194 202 211 220 227 229 244 243 259 254 257 277 269 268 264 258 257 257 256 263 260 237 233 167 216 197 202
342 340 335 336 336 334 331 328 323 325 326 347 178 215 270 86 260 224 228 201 206 226 251 267 246 264 267 276 274 271 269 273 271 272 248 239 254 247 257 212 196 217 199 204 217
345 341 337 340 340 336 332 332 333 326 310 320 212 231 163 167 217 204 219 233 227 232 243 249 251 250 252 249 256 254 261 264 269 276 264 238 260 251 260 255 239 248 243 241 215
343 341 341 343 341 338 339 325 308 297 280 243 263 243 204 360 314 276 226 241 236 225 225 225 239 243 238 246 256 261 267 264 259 254 263 249 244 246 251 263 266 262 260 246 244
346 342 340 343 343 347 342 295 230 195 228 320 1 298 86 325 219 201 217 209 232 247 240 212 234 238 250 250 251 263 267 275 280 290 291 278 276 277 281 278 268 272 263 256 244
344 341 339 342 345 2 337 34 43 336 300 198 257 258 234 314 236 195 191 219 192 238 234 237 242 255 269 273 275 262 269 268 268 273 275 275 266 268 268 267 260 265 269 254 249
342 342 339 342 344 347 17 34 345 326 255 185 238 280 302 256 305 129 221 249 264 256 252 257 273 294 269 266 274 259 267 275 276 275 273 266 261 254 262 263 255 250 253 253 249
342 342 340 340 304 342 48 344 334 319 266 142 201 161 223 254 226 223 253 285 256 280 321 284 290 302 291 278 249 269 270 280 275 269 264 267 266 254 253 252 241 262 244 240 240
340 340 338 343 310 315 334 325 320 252 262 119 142 71 236 255 0 159 244 239 266 291 265 281 317 289 283 281 290 282 296 287 283 279 273 250 257 268 262 252 246 257 259 241 229
336 336 333 333 250 303 315 310 268 234 203 145 227 221 231 199 161 250 209 220 277 276 259 258 257 247 273 293 279 285 282 276 271 263 267 269 275 283 282 268 271 243 239 239 227
332 329 319 290 330 321 312 271 248 256 141 126 205 264 281 255 242 233 288 203 324 290 302 312 269 49 241 256 245 252 254 266 255 250 251 313 313 236 295 322 251 262 283 284 204
331 323 292 246 294 315 290 261 261 50 266 84 270 279 256 16 242 262 258 245 126 320 310 303 310 73 158 244 293 307 310 299 303 295 216 347 273 283 302 303 257 288 290 309 289
333 306 258 226 264 306 276 252 299 37 354 314 287 260 204 187 269 253 248 298 16 342 327 306 290 344 259 275 255 261 248 325 301 264 268 179 247 264 247 254 251 142 350 9 0
325 295 255 224 251 280 261 262 305 327 301 254 281 305 285 166 277 204 290 104 284 333 313 305 289 300 289 290 255 261 296 264 232 13 304 326 305 259 241 316 296 159 311 25 330
289 281 120 207 247 248 250 306 327 169 278 260 294 274 271 296 292 296 290 331 68 321 312 292 296 292 300 286 324 280 264 257 287 249 254 264 273 261 354 244 251 164 35 26 341
292 266 131 204 249 233 267 244 356 261 197 262 275 286 279 316 285 281 272 312 45 323 312 316 309 291 292 302 249 261 337 312 253 241 257 326 277 16 223 199 295 28 11 17 341
272 292 164 227 256 246 208 268 240 254 245 246 250 226 298 285 292 266 292 327 315 312 334 340 297 299 281 259 53 1 347 263 279 266 302 347 312 2 261 2 38 20 18 9 344
278 276 183 210 266 277 292 253 243 195 281 268 279 300 267 262 261 251 278 295 296 298 76 293 264 266 284 299 286 203 237 262 274 288 305 262 227 357 327 355 14 8 27 22 22
243 279 6 273 191 281 275 290 283 241 199 248 260 243 268 289 285 277 279 288 310 317 280 258 283 282 285 289 287 290 280 276 280 287 286 300 308 98 292 31 44 47 55 37 346
296 321 2 274 274 274 248 253 257 264 241 263 228 280 289 278 278 292 319 306 298 307 289 294 297 284 284 284 285 285 272 272 275 274 274 297 308 36 26 57 56 47 61 50 9
315 271 268 287 258 252 260 248 260 267 275 261 290 291 272 319 343 315 294 281 275 273 276 275 281 280 274 295 299 281 262 283 299 353 304 325 355 356 8 44 18 17 18 55 46